Wind_Speed
4 4 6 7 8 10 11 11 12 13 14 14 15 15 15 16 16 17 18 18 18 18 18 20 21 22 23 22 22 23 22 23 23 23 24 24 25 25 26 26 26 27 27 28
5 6 7 7 8 9 10 11 11 12 13 13 13 14 16 16 16 16 16 16 16 17 18 18 20 20 21 22 22 21 22 22 22 22 23 23 24 25 26 26 26 27 27 28
5 6 6 7 7 8 9 10 12 13 13 13 13 13 14 15 16 16 15 14 14 15 16 17 18 19 20 20 21 22 22 22 22 22 22 22 23 24 25 26 26 26 27 27
4 5 6 6 7 7 8 10 11 11 11 11 11 11 12 13 13 13 13 14 14 14 14 15 16 17 18 18 19 20 20 21 21 22 22 22 23 24 24 25 25 25 25 26
4 5 6 5 6 7 7 8 8 9 9 10 10 10 10 11 11 11 12 13 13 14 14 14 15 16 17 18 18 19 20 20 20 20 21 22 23 24 24 25 25 26 25 25
5 6 7 7 6 5 6 6 7 8 8 8 9 8 9 11 11 11 11 11 11 12 13 14 15 16 16 17 17 18 18 19 19 20 21 22 23 24 24 24 26 26 26 26
6 6 7 7 7 6 5 4 5 6 6 8 9 8 10 10 10 10 10 10 10 10 11 11 12 14 15 16 16 16 17 18 19 20 21 21 22 23 24 24 25 25 25 25
5 6 6 7 7 6 5 4 4 5 6 7 7 7 8 9 9 10 11 10 10 10 11 11 12 13 13 15 15 15 16 17 17 19 19 20 21 22 22 23 24 24 24 24
5 5 6 7 7 7 7 6 5 5 6 5 5 6 8 9 9 9 9 9 9 10 10 11 11 12 13 14 14 14 15 15 16 17 18 19 20 21 21 22 22 22 23 23
5 6 6 7 7 7 7 7 6 5 5 5 6 7 7 9 9 8 8 9 10 10 9 10 10 12 13 13 13 13 14 15 16 16 17 18 19 20 20 20 20 21 22 22
6 7 7 7 7 7 8 7 7 6 5 6 6 8 9 9 8 8 8 9 10 10 10 10 11 12 13 13 13 13 14 14 15 16 17 18 18 18 19 19 20 20 21 22
6 6 7 7 7 8 8 8 7 7 8 7 7 9 9 9 9 9 9 10 10 9 9 10 11 12 13 13 14 14 14 14 15 15 16 16 17 17 19 20 20 21 22 22
7 7 8 9 9 9 9 9 8 8 7 8 9 10 11 10 10 11 11 11 11 9 9 10 10 11 12 13 13 13 13 13 14 15 15 16 17 18 19 20 20 20 21 21
7 8 7 7 8 9 9 9 9 8 8 9 10 11 12 12 11 11 11 11 11 10 10 10 10 10 11 12 12 12 12 13 13 14 15 15 17 18 19 19 20 20 21 21
8 8 8 8 8 9 9 9 10 9 9 9 10 11 12 12 12 11 11 11 11 11 11 9 10 11 12 12 12 12 12 13 13 14 14 15 17 18 19 19 20 19 20 20
9 8 8 8 9 10 10 10 11 11 10 11 11 12 12 12 12 12 12 12 12 12 11 11 11 12 12 12 12 12 12 12 12 13 14 16 18 19 20 19 19 19 19 20
10 9 9 9 10 11 11 11 11 11 10 12 12 12 12 13 13 13 13 13 13 12 12 11 11 11 12 13 13 12 12 12 13 13 15 16 17 19 19 18 18 19 19 19
10 9 9 9 10 11 12 12 12 13 12 13 13 13 13 13 13 13 13 13 13 13 12 12 12 12 12 13 12 12 12 12 13 14 15 17 18 19 18 18 18 18 18 19
10 10 11 11 11 12 13 14 14 15 15 14 14 14 14 13 13 13 13 13 12 12 12 12 12 13 13 12 12 12 12 12 13 14 15 17 17 18 18 18 17 17 17 18
11 12 12 12 13 14 15 15 15 16 16 15 14 14 14 13 13 13 13 12 12 12 11 11 11 11 11 11 11 11 12 13 14 14 15 16 16 17 18 17 17 18 18 18
13 13 13 14 14 15 16 16 15 16 16 15 14 14 13 13 13 13 12 12 11 11 11 10 10 10 10 10 10 11 11 12 13 14 15 15 15 16 17 16 17 17 18 19
15 15 15 15 15 16 16 16 16 15 15 14 13 13 13 12 12 13 12 12 11 11 11 11 10 10 10 9 10 10 11 11 12 13 14 15 15 16 16 16 17 18 19 19
16 15 15 15 15 16 16 16 16 15 14 14 13 13 13 13 13 13 13 12 11 11 11 11 10 10 10 9 9 10 10 11 12 13 14 14 15 16 16 16 17 18 19 19
16 15 15 15 15 16 17 16 16 15 15 14 13 13 13 13 13 13 12 12 11 11 10 10 9 9 9 9 9 10 10 11 11 12 13 14 15 15 15 16 17 18 19 20
17 17 16 16 16 17 17 17 16 15 14 13 13 13 13 13 13 12 11 12 11 10 9 8 8 8 8 8 9 10 10 10 10 11 13 13 14 15 15 16 17 18 19 20
19 19 18 17 17 17 17 16 16 15 14 13 13 13 14 13 12 11 11 11 10 9 8 7 7 7 7 8 8 8 8 8 10 11 12 12 13 14 14 15 17 18 19 20
Wind_Direction
293 279 265 264 268 268 265 265 271 271 272 270 267 266 268 271 269 270 269 269 267 265 263 262 260 261 263 267 269 271 273 276 278 279 282 283 282 281 281 283 285 286 286 287
305 287 277 272 272 273 268 268 272 273 274 275 272 270 272 272 272 273 271 270 267 265 264 260 260 263 264 268 271 274 275 277 278 279 282 281 281 283 285 284 285 287 287 288
300 289 285 286 288 288 280 271 271 275 278 280 281 283 279 276 274 273 271 268 269 268 268 264 264 265 268 271 274 275 277 278 278 279 280 282 281 283 285 285 286 287 288 289
323 316 308 298 294 293 282 275 274 276 282 287 285 286 283 280 277 274 271 270 270 269 268 266 264 267 270 273 276 277 280 282 281 280 281 284 285 285 285 286 287 288 290 291
342 340 339 324 304 295 283 285 284 282 286 289 290 288 283 286 281 276 273 273 274 273 268 266 265 270 275 275 277 279 281 284 285 284 285 287 288 288 287 288 289 290 291 291
348 350 351 345 330 311 295 289 291 296 297 293 290 287 283 282 282 277 276 277 276 277 276 273 272 274 277 279 282 282 283 285 286 288 287 287 288 288 289 291 290 291 292 292
349 350 350 350 345 331 316 306 312 315 308 295 290 287 285 286 284 280 277 276 277 280 281 280 278 276 277 282 288 288 287 286 287 288 288 288 290 292 292 291 292 293 294 295
356 344 346 350 348 342 335 329 307 304 302 305 305 293 297 303 296 289 283 278 276 281 284 282 282 282 283 286 290 290 290 290 289 289 290 291 294 294 295 296 297 297 295 297
350 343 351 349 348 352 348 336 318 311 308 311 318 312 308 306 307 295 285 281 283 283 286 286 284 286 288 289 292 293 292 291 291 291 291 292 293 296 298 298 297 297 298 299
348 350 349 350 351 356 352 341 335 340 322 317 320 322 312 301 300 297 293 290 291 291 285 288 289 290 291 293 296 300 298 293 292 291 292 295 298 301 300 300 302 300 300 300
353 353 358 352 352 357 354 347 344 336 326 315 316 321 314 309 307 303 298 300 296 292 291 289 289 290 294 295 296 299 300 297 295 295 297 300 302 302 302 303 304 304 304 302
352 353 355 352 355 356 350 346 343 335 327 322 317 319 320 315 312 305 301 301 302 295 296 296 294 294 296 298 300 300 302 299 296 298 302 305 306 305 307 307 307 306 307 306
355 356 357 351 349 349 347 346 345 341 336 332 325 317 321 314 307 304 303 302 301 297 297 294 297 296 298 301 305 306 306 305 302 301 306 308 309 309 310 310 311 310 310 311
352 352 347 345 344 344 343 344 341 337 338 332 327 320 316 310 306 304 302 303 305 301 299 299 297 299 304 306 309 312 311 310 308 307 308 311 313 314 314 313 314 314 313 314
345 349 348 342 341 339 335 337 336 329 328 324 321 319 317 317 310 310 309 305 304 303 300 297 297 300 306 310 312 313 312 312 312 311 313 314 315 316 316 316 317 318 318 317
338 345 342 339 339 337 332 331 327 321 320 319 316 314 314 314 311 308 307 307 304 300 299 297 296 300 306 309 312 311 310 312 313 315 317 320 319 317 318 318 319 322 323 321
329 334 334 333 333 331 334 334 331 327 321 318 316 317 316 313 313 310 308 305 309 305 302 299 299 300 306 308 309 309 310 313 316 318 319 322 324 323 322 322 322 325 327 326
323 327 329 327 329 331 332 331 328 323 321 318 315 313 313 314 315 313 310 309 310 309 304 301 301 302 305 308 308 309 312 314 317 320 321 322 323 328 329 328 327 329 328 327
317 322 323 323 324 325 323 323 322 320 320 317 315 315 315 313 313 312 312 312 311 310 306 304 302 302 304 305 307 309 313 317 319 322 323 326 326 329 331 330 329 331 333 332
311 315 316 317 317 319 319 321 319 319 318 317 316 316 313 313 311 310 311 310 307 308 306 305 304 304 305 305 308 312 316 321 323 324 326 328 329 332 333 333 334 335 336 334
306 310 312 314 315 314 316 319 319 319 320 318 317 317 315 312 311 313 313 310 305 303 303 303 306 306 307 306 306 310 316 322 326 327 329 332 334 335 336 336 337 339 339 338
301 306 309 312 314 312 314 316 317 319 320 317 315 314 314 313 313 314 314 309 305 302 300 301 303 303 304 304 306 311 315 321 325 328 333 337 339 339 339 339 340 341 341 341
295 300 304 307 310 311 314 315 316 317 317 316 314 314 315 313 312 313 312 310 306 303 299 299 300 300 302 303 307 309 313 319 325 330 335 339 343 343 343 344 345 344 344 344
291 294 300 302 305 308 311 312 312 310 311 311 311 310 311 311 309 311 312 310 307 305 301 300 300 303 305 306 308 311 313 318 327 334 339 343 347 349 349 349 349 348 348 349
286 290 293 296 299 304 307 308 308 306 305 304 306 306 307 311 311 312 309 309 309 307 304 302 301 304 308 310 311 313 315 320 328 336 343 346 349 351 353 354 353 353 353 354
281 285 289 292 296 301 303 304 305 305 304 303 303 304 306 307 309 310 308 309 307 302 299 300 300 304 310 312 312 315 320 326 331 339 345 348 351 354 356 356 356 357 358 358
Height
5827 5828 5828 5828 5828 5828 5828 5829 5829 5829 5828 5828 5828 5829 5829 5829 5829 5828 5828 5828 5827 5827 5827 5827 5827 5827 5828 5828 5827 5827 5826 5826 5825 5824 5823 5822 5820 5819 5818 5816 5815 5813 5812 5810
5827 5827 5826 5825 5825 5825 5825 5826 5826 5826 5825 5825 5825 5825 5825 5825 5824 5824 5824 5823 5823 5823 5823 5823 5823 5823 5823 5823 5822 5822 5821 5821 5819 5818 5818 5817 5815 5813 5812 5810 5809 5807 5806 5804
5825 5825 5824 5823 5823 5823 5823 5823 5823 5822 5822 5822 5822 5823 5822 5820 5820 5820 5820 5819 5819 5819 5819 5819 5818 5819 5818 5818 5818 5817 5817 5816 5815 5814 5813 5811 5810 5808 5806 5805 5803 5801 5799 5798
5824 5823 5822 5821 5821 5820 5820 5819 5819 5819 5820 5820 5820 5821 5819 5817 5816 5816 5816 5816 5815 5815 5815 5815 5815 5815 5815 5814 5813 5813 5812 5811 5810 5808 5807 5805 5804 5803 5801 5799 5797 5795 5793 5791
5823 5822 5821 5820 5819 5818 5817 5816 5816 5816 5817 5818 5817 5818 5817 5814 5813 5813 5812 5812 5812 5812 5811 5811 5811 5811 5810 5810 5809 5807 5806 5805 5804 5803 5802 5800 5799 5797 5795 5793 5791 5789 5787 5785
5823 5821 5820 5818 5817 5816 5815 5815 5815 5815 5815 5816 5815 5815 5814 5812 5811 5810 5810 5809 5809 5808 5808 5807 5807 5807 5806 5805 5804 5803 5802 5801 5799 5798 5797 5795 5794 5791 5790 5788 5786 5784 5781 5779
5823 5822 5820 5818 5816 5815 5814 5814 5815 5815 5815 5815 5812 5811 5811 5808 5807 5807 5806 5806 5806 5805 5805 5804 5803 5803 5802 5801 5800 5799 5798 5796 5795 5793 5792 5790 5788 5786 5784 5782 5780 5778 5775 5773
5824 5823 5820 5818 5816 5815 5813 5813 5814 5815 5814 5812 5809 5809 5808 5806 5804 5804 5803 5802 5803 5802 5802 5801 5800 5799 5799 5798 5796 5794 5793 5792 5790 5789 5787 5785 5784 5782 5779 5777 5775 5772 5770 5768
5823 5822 5820 5818 5816 5814 5813 5812 5812 5811 5810 5809 5808 5807 5805 5803 5802 5801 5800 5800 5800 5799 5799 5798 5797 5796 5795 5794 5792 5790 5789 5788 5786 5784 5783 5781 5779 5777 5775 5772 5770 5767 5765 5762
5822 5821 5820 5818 5816 5814 5813 5811 5810 5809 5809 5808 5807 5805 5804 5801 5800 5799 5798 5797 5797 5796 5796 5795 5794 5793 5792 5790 5788 5787 5785 5784 5782 5781 5779 5777 5775 5773 5770 5768 5765 5762 5760 5757
5822 5821 5820 5818 5816 5814 5813 5811 5809 5808 5807 5806 5805 5806 5801 5799 5798 5797 5796 5795 5794 5793 5792 5792 5791 5790 5789 5787 5786 5784 5782 5781 5779 5777 5776 5774 5771 5769 5766 5763 5760 5758 5754 5751
5822 5821 5819 5817 5815 5813 5812 5810 5808 5807 5805 5804 5802 5804 5798 5797 5796 5795 5794 5793 5791 5790 5789 5789 5788 5787 5786 5785 5783 5781 5780 5778 5776 5774 5772 5770 5767 5765 5762 5759 5756 5753 5749 5746
5821 5820 5819 5817 5816 5814 5811 5809 5807 5806 5804 5803 5801 5802 5797 5795 5793 5792 5791 5790 5788 5787 5787 5786 5785 5784 5783 5781 5780 5778 5776 5775 5773 5771 5769 5767 5764 5761 5758 5755 5751 5748 5745 5741
5821 5819 5819 5818 5815 5812 5810 5808 5807 5805 5803 5802 5800 5798 5796 5794 5792 5790 5789 5787 5786 5785 5784 5783 5782 5781 5780 5778 5777 5775 5773 5771 5769 5768 5766 5763 5760 5757 5754 5750 5747 5744 5740 5736
5820 5818 5817 5815 5813 5811 5809 5807 5806 5804 5802 5800 5798 5796 5794 5792 5790 5788 5787 5785 5784 5782 5781 5780 5779 5778 5777 5776 5774 5772 5770 5768 5766 5765 5762 5759 5756 5753 5750 5747 5743 5740 5736 5732
5819 5817 5815 5814 5812 5810 5808 5806 5804 5802 5800 5798 5796 5794 5792 5789 5788 5786 5784 5783 5781 5779 5778 5777 5776 5775 5774 5773 5771 5769 5767 5766 5764 5762 5759 5756 5753 5750 5747 5743 5740 5736 5732 5729
5817 5815 5814 5812 5810 5809 5807 5805 5802 5799 5797 5796 5794 5792 5789 5787 5785 5783 5781 5780 5778 5776 5775 5774 5773 5772 5771 5770 5768 5767 5765 5763 5761 5759 5756 5754 5750 5747 5743 5740 5736 5733 5729 5725
5816 5814 5812 5811 5810 5807 5807 5803 5800 5797 5795 5793 5791 5789 5787 5784 5783 5780 5778 5777 5775 5774 5772 5771 5770 5769 5768 5767 5765 5764 5762 5761 5759 5757 5754 5751 5748 5744 5740 5737 5733 5730 5726 5722
5814 5812 5811 5809 5807 5805 5803 5800 5797 5795 5793 5790 5788 5786 5784 5782 5780 5778 5776 5774 5772 5771 5770 5768 5767 5766 5765 5764 5762 5761 5760 5758 5756 5754 5751 5748 5745 5742 5738 5734 5731 5727 5723 5720
5812 5810 5809 5806 5804 5802 5801 5797 5794 5793 5790 5787 5785 5783 5780 5778 5777 5776 5773 5771 5770 5769 5767 5766 5765 5763 5762 5761 5760 5758 5757 5755 5753 5751 5748 5746 5742 5739 5735 5732 5728 5724 5720 5717
5809 5807 5805 5803 5801 5799 5797 5794 5792 5790 5788 5784 5781 5779 5777 5775 5774 5773 5770 5769 5767 5766 5765 5763 5762 5761 5760 5758 5757 5756 5755 5753 5751 5748 5746 5743 5740 5736 5733 5729 5726 5722 5718 5714
5805 5804 5802 5800 5798 5797 5793 5790 5789 5787 5783 5780 5778 5776 5774 5772 5771 5769 5767 5766 5764 5763 5762 5761 5760 5759 5757 5756 5755 5754 5752 5751 5749 5746 5744 5741 5738 5734 5731 5727 5724 5720 5716 5712
5801 5800 5798 5797 5796 5792 5789 5787 5785 5782 5780 5778 5776 5773 5771 5769 5768 5766 5764 5762 5761 5759 5758 5757 5756 5756 5755 5754 5753 5751 5750 5748 5746 5744 5742 5739 5736 5732 5729 5725 5722 5718 5714 5709
5796 5795 5794 5792 5791 5788 5786 5784 5781 5779 5776 5774 5772 5770 5768 5766 5765 5763 5761 5759 5758 5756 5755 5754 5754 5753 5752 5751 5750 5749 5747 5746 5744 5742 5740 5737 5734 5731 5727 5724 5720 5716 5712 5707
5791 5790 5789 5788 5787 5784 5782 5779 5777 5775 5773 5771 5769 5767 5765 5763 5761 5760 5758 5757 5755 5753 5752 5751 5751 5750 5749 5749 5748 5747 5745 5743 5742 5740 5738 5735 5732 5729 5726 5722 5718 5714 5710 5706
5786 5785 5784 5783 5782 5780 5778 5775 5773 5771 5769 5767 5765 5764 5762 5760 5758 5757 5755 5754 5752 5751 5750 5749 5749 5748 5747 5746 5746 5744 5743 5742 5740 5739 5736 5733 5731 5728 5725 5721 5717 5713 5709 5704